Fredericton, New Brunswick

7:49 AM ADT on September 24, 2017 (GMT -0300)
Greater Fredericton Airport

Weather History for CYFC - October, 2013

Change the Weather History Date:

Wednesday, October 2, 2013

  Actual Average Record
Temperature  
Mean Temperature 59 °F -  
Max Temperature 77 °F 55 °F 78 °F (2002)
Min Temperature 41 °F 34 °F 35 °F (2001)
Degree Days  
Heating Degree Days 6    
Growing Degree Days 9 (Base 50)    
Moisture  
Dew Point 47 °F    
Average Humidity 87    
Maximum Humidity 100    
Minimum Humidity 41    
Precipitation  
Precipitation 0.00 in 0.12 in - ()
Sea Level Pressure  
Sea Level Pressure 29.74 in    
Wind  
Wind Speed 4 mph ()    
Max Wind Speed 15 mph    
Max Gust Speed 23 mph    
Visibility 6.1 miles    
Events Fog    
Averages and records for this station are not official NWS values.
T = Trace of Precipitation, MM = Missing Value Source: Averaged Metar Reports

Daily Weather History Graph

Daily Weather History Graph

Search for Another Location

Airport or City:

Trip Planner

Search our weather history database for the weather conditions in past years. The results will help you decide how hot, cold, wet, or windy it might be!

Date:

Astronomy

Oct. 02, 2013 Rise Set
Actual Time 7:26 AM ADT 7:03 PM ADT
Civil Twilight 6:56 AM ADT 7:33 PM ADT
Nautical Twilight 6:21 AM ADT 8:08 PM ADT
Astronomical Twilight 5:46 AM ADT 8:43 PM ADT
Moon 4:49 AM ADT (10/2) 5:42 PM ADT (10/2)
Length of Visible Light 12h 37m
Length of Day
11h 37m
Waning Crescent, 6% of the Moon is Illuminated
Oct 2
Waning Crescent
Oct 4
New
Oct 11
First Quarter
Oct 18
Full
Oct 26
Last Quarter

Hourly Weather History & Observations

Time (ADT) Temp. Windchill Dew Point Humidity Pressure Visibility Wind Dir Wind Speed Gust Speed Precip Events Conditions
12:00 AM 50.0 °F - 50.0 °F 100% 29.78 in 9.0 mi SSW 4.6 mph - N/A   Clear
12:03 AM 50.0 °F - 50.0 °F 100% 29.78 in 9.0 mi SSW 4.6 mph - N/A   Partly Cloudy
12:10 AM 48.2 °F - 48.2 °F 100% 29.78 in 4.0 mi SSW 4.6 mph - N/A   Partly Cloudy
12:26 AM 48.2 °F - 48.2 °F 100% 29.78 in 6.0 mi SW 3.5 mph - N/A   Scattered Clouds
12:31 AM 48.2 °F - 48.2 °F 100% 29.78 in 5.0 mi SSW 3.5 mph - N/A   Scattered Clouds
12:35 AM 48.2 °F - 48.2 °F 100% 29.78 in 1.8 mi SSW 4.6 mph - N/A   Partly Cloudy
12:45 AM 48.2 °F - 48.2 °F 100% 29.78 in 2.0 mi SW 3.5 mph - N/A   Scattered Clouds
12:49 AM 48.2 °F - 48.2 °F 100% 29.78 in 1.5 mi SW 3.5 mph - N/A   Scattered Clouds
12:59 AM 46.4 °F 43.5 °F 46.4 °F 100% 29.78 in 2.0 mi SW 5.8 mph - N/A   Partly Cloudy
1:00 AM 46.4 °F 43.5 °F 46.4 °F 100% 29.78 in 2.5 mi SW 5.8 mph - N/A   Partly Cloudy
1:01 AM 46.4 °F 43.5 °F 46.4 °F 100% 29.78 in 3.0 mi SW 5.8 mph - N/A   Partly Cloudy
1:09 AM 48.2 °F - 48.2 °F 100% 29.78 in 9.0 mi SW 4.6 mph - N/A   Partly Cloudy
2:00 AM 46.4 °F 45.2 °F 46.4 °F 100% 29.78 in 9.0 mi West 3.5 mph - N/A   Clear
2:21 AM 44.6 °F - 44.6 °F 100% 29.77 in 5.0 mi Calm Calm - N/A   Clear
2:24 AM 44.6 °F - 44.6 °F 100% 29.77 in 2.2 mi Calm Calm - N/A   Clear
2:32 AM 44.6 °F - 44.6 °F 100% 29.77 in 3.0 mi Calm Calm - N/A   Clear
2:34 AM 44.6 °F - 44.6 °F 100% 29.77 in 9.0 mi SW 2.3 mph - N/A   Clear
3:00 AM 44 °F - 44 °F 99% 29.77 in 9 mi WSW 3.5 mph - -  
3:00 AM 44.6 °F 43.1 °F 44.6 °F 100% 29.77 in 9.0 mi WSW 3.5 mph - N/A   Clear
3:26 AM 44.6 °F - 44.6 °F 100% 29.76 in 9.0 mi SW 2.3 mph - N/A   Partly Cloudy
3:34 AM 44.6 °F 43.1 °F 42.8 °F 93% 29.76 in 9.0 mi SW 3.5 mph - N/A   Mostly Cloudy
3:41 AM 42.8 °F 41.1 °F 42.8 °F 100% 29.76 in 4.0 mi SW 3.5 mph - N/A   Mostly Cloudy
3:43 AM 42.8 °F 41.1 °F 42.8 °F 100% 29.76 in 1.8 mi SW 3.5 mph - N/A   Mostly Cloudy
3:49 AM 42.8 °F 41.1 °F 42.8 °F 100% 29.75 in 0.5 mi SSW 3.5 mph - N/A Fog Fog
3:50 AM 42.8 °F 40.1 °F 42.8 °F 100% 29.75 in 0.4 mi SSW 4.6 mph - N/A Fog Fog
3:57 AM 42.8 °F 40.1 °F 41.0 °F 93% 29.75 in 0.5 mi SSW 4.6 mph - N/A Fog Fog
4:00 AM 42.8 °F 40.1 °F 42.8 °F 100% 29.75 in 0.5 mi SW 4.6 mph - N/A Fog Fog
4:03 AM 44.6 °F 41.4 °F 42.8 °F 93% 29.75 in 0.5 mi SW 5.8 mph - N/A Fog Fog
5:00 AM 42.8 °F - 41.0 °F 93% 29.76 in 0.8 mi Calm Calm - N/A   Mist
5:14 AM 42.8 °F - 42.8 °F 100% 29.76 in 0.8 mi Variable 2.3 mph - N/A   Scattered Clouds
5:18 AM 42.8 °F - 42.8 °F 100% 29.76 in 2.2 mi Variable 2.3 mph - N/A   Scattered Clouds
5:19 AM 42.8 °F - 42.8 °F 100% 29.76 in 3.0 mi Variable 2.3 mph - N/A   Scattered Clouds
5:21 AM 42.8 °F 41.1 °F 42.8 °F 100% 29.76 in 7.0 mi West 3.5 mph - N/A   Scattered Clouds
5:57 AM 42.8 °F 40.1 °F 41.0 °F 93% 29.76 in 4.0 mi SW 4.6 mph - N/A   Partly Cloudy
6:00 AM 41.0 °F 39.0 °F 41.0 °F 100% 29.76 in 3.0 mi WSW 3.5 mph - N/A   Partly Cloudy
6:08 AM 41.0 °F 39.0 °F 41.0 °F 100% 29.76 in 9.0 mi SW 3.5 mph - N/A   Clear
7:00 AM 42.8 °F 40.1 °F 42.8 °F 100% 29.76 in 9.0 mi SSW 4.6 mph - N/A   Clear
8:00 AM 44.6 °F 43.1 °F 42.8 °F 93% 29.76 in 9.0 mi SSW 3.5 mph - N/A   Clear
9:00 AM 49 °F - 49 °F 98% 29.75 in 10 mi SSW 5.8 mph - -  
9:00 AM 50.0 °F - 48.2 °F 94% 29.75 in 9.0 mi SSW 6.9 mph - N/A   Clear
10:00 AM 57.2 °F - 53.6 °F 88% 29.74 in 9.0 mi SSW 5.8 mph - N/A   Clear
11:00 AM 64.4 °F - 55.4 °F 73% 29.73 in 9.0 mi SSW 5.8 mph - N/A   Clear
12:00 PM 71.6 °F - 55.4 °F 57% 29.70 in 9.0 mi WSW 11.5 mph 17.3 mph N/A   Clear
1:00 PM 73.4 °F - 55.4 °F 53% 29.68 in 9.0 mi WSW 10.4 mph 20.7 mph N/A   Clear
2:00 PM 75.2 °F - 55.4 °F 50% 29.65 in 9.0 mi WSW 13.8 mph 21.9 mph N/A   Clear
3:00 PM 75 °F - 56 °F 41% 29.64 in 10 mi WSW 12.7 mph - -  
3:00 PM 75.2 °F - 55.4 °F 50% 29.64 in 9.0 mi West 11.5 mph 21.9 mph N/A   Mostly Cloudy
4:00 PM 73.4 °F - 57.2 °F 57% 29.63 in 9.0 mi SW 15.0 mph 23.0 mph N/A   Mostly Cloudy
5:00 PM 73.4 °F - 57.2 °F 57% 29.62 in 9.0 mi WSW 8.1 mph - N/A   Partly Cloudy
6:00 PM 71.6 °F - 55.4 °F 57% 29.63 in 9.0 mi WSW 6.9 mph - N/A   Clear
7:00 PM 68.0 °F - 48.2 °F 49% 29.65 in 9.0 mi WSW 5.8 mph - N/A   Clear
8:00 PM 62.6 °F - 50.0 °F 63% 29.67 in 9.0 mi WSW 4.6 mph - N/A   Partly Cloudy
9:00 PM 64 °F - 49 °F 48% 29.69 in 10 mi West 8.1 mph - -  
9:00 PM 64.4 °F - 50.0 °F 59% 29.69 in 9.0 mi West 6.9 mph - N/A   Clear
10:00 PM 59.0 °F - 50.0 °F 72% 29.70 in 9.0 mi WSW 4.6 mph - N/A   Clear
11:00 PM 59.0 °F - 48.2 °F 67% 29.71 in 9.0 mi West 4.6 mph - N/A   Clear